sat.trackr.live / text

‹ back to catalog

STARLINK-32847

NORAD 62811 · 2025-018F

PAYLOAD ACTIVE UNKNOWN

§ Identity

Operator
Country
US
Launch date
2025-01-24
Launch site
AFWTR
Launch vehicle
Mass (kg)
RCS (m²)

Purposes: comms

External: N2YO · Heavens-Above · Gunter

§ Orbital elements

Epoch: 2026-05-25T04:24:55.564416Z

Period
94.11 min
Inclination
53.1607°
Eccentricity
0.0001780
Mean motion
15.30202773 rev/d
Perigee alt
474.0 km
Apogee alt
476.4 km
Semi-major
6,853.3 km
B*
5.7473e-4
RAAN
314.0266°
Arg perigee
90.8003°
Mean anomaly
269.3202°
Rev number
7,488

§ Raw data

STARLINK-328471 62811U 25018F   26145.18397644  .00016702  00000+0  57473-3 0  99982 62811  53.1607 314.0266 0001780  90.8003 269.3202 15.30202773 74881

JSON: /api/v1/satellites/62811 · /tle

For live sub-satellite position, see the globe view (requires WebGL).

§ Visibility from observer

Set your observer location to see the next 7 days of passes ≥ 10°. The values pass through the URL so the page stays shareable.

No JS? Fill the form by hand. The geolocation button needs JavaScript.